Bryce Canyon, UT

12:40 PM MST on December 18, 2017 (GMT -0700)
Bryce Canyon

Weather History for KBCE - September, 2013

Change the Weather History Date:

Sunday, September 8, 2013

  Actual Average Record
Temperature  
Mean Temperature 56 °F -  
Max Temperature 60 °F 72 °F 86 °F (1977)
Min Temperature 52 °F 40 °F 28 °F (1968)
Degree Days  
Heating Degree Days 10    
Growing Degree Days 6 (Base 50)    
Moisture  
Dew Point 54 °F    
Average Humidity 94    
Maximum Humidity 100    
Minimum Humidity 81    
Precipitation  
Precipitation 0.18 in - - ()
Sea Level Pressure  
Sea Level Pressure 30.10 in    
Wind  
Wind Speed 4 mph (ESE)    
Max Wind Speed 9 mph    
Max Gust Speed -    
Visibility 10 miles    
Events Rain    
Averages and records for this station are not official NWS values.
T = Trace of Precipitation, MM = Missing Value Source: NWS Daily Summary

Daily Weather History Graph

Daily Weather History Graph

Search for Another Location

Airport or City:

Trip Planner

Search our weather history database for the weather conditions in past years. The results will help you decide how hot, cold, wet, or windy it might be!

Date:

Astronomy

Sep. 08, 2013 Rise Set
Actual Time 7:04 AM MDT 7:46 PM MDT
Civil Twilight 6:38 AM MDT 8:13 PM MDT
Nautical Twilight 6:07 AM MDT 8:44 PM MDT
Astronomical Twilight 5:34 AM MDT 9:16 PM MDT
Moon 10:21 AM MDT (9/8) 9:29 PM MDT (9/8)
Length of Visible Light 13h 34m
Length of Day
12h 41m
Waxing Crescent, 11% of the Moon is Illuminated
Sep 8
Waxing Crescent
Sep 12
First Quarter
Sep 19
Full
Sep 26
Last Quarter
Oct 4
New

Hourly Weather History & Observations

Time (MDT) Temp. Dew Point Humidity Pressure Visibility Wind Dir Wind Speed Gust Speed Precip Events Conditions
12:53 AM 54.0 °F 53.1 °F 97% 29.97 in 10.0 mi NNE 3.5 mph - 0.01 in Rain Light Rain
1:53 AM 53.1 °F 53.1 °F 100% 29.95 in 9.0 mi NNE 6.9 mph - 0.02 in Rain Light Rain
2:53 AM 54.0 °F 52.0 °F 93% 29.93 in 10.0 mi NNE 3.5 mph - 0.01 in Rain Light Rain
3:53 AM 53.1 °F 52.0 °F 96% 29.94 in 10.0 mi ENE 4.6 mph - 0.00 in   Overcast
4:53 AM 53.1 °F 52.0 °F 96% 29.92 in 10.0 mi Calm Calm - 0.01 in   Overcast
5:53 AM 53.1 °F 52.0 °F 96% 29.92 in 10.0 mi Calm Calm - N/A   Overcast
6:53 AM 52.0 °F 52.0 °F 100% 29.95 in 10.0 mi Calm Calm - N/A   Mostly Cloudy
7:53 AM 53.1 °F 53.1 °F 100% 29.99 in 10.0 mi Calm Calm - N/A   Overcast
8:26 AM 55.4 °F 53.6 °F 94% 30.27 in 10.0 mi Calm Calm - N/A   Overcast
8:53 AM 55.0 °F 53.1 °F 93% 29.99 in 10.0 mi Calm Calm - N/A   Overcast
9:24 AM 53.6 °F 53.6 °F 100% 30.28 in 5.0 mi SE 4.6 mph - 0.02 in Rain Light Rain
9:39 AM 53.6 °F 53.6 °F 100% 30.27 in 10.0 mi SE 3.5 mph - 0.02 in   Overcast
9:53 AM 54.0 °F 53.1 °F 97% 30.00 in 10.0 mi SSE 5.8 mph - 0.02 in   Overcast
10:24 AM 55.4 °F 53.6 °F 94% 30.28 in 10.0 mi SE 4.6 mph - N/A   Overcast
10:37 AM 55.4 °F 53.6 °F 94% 30.27 in 10.0 mi SE 3.5 mph - N/A   Overcast
10:53 AM 55.0 °F 53.1 °F 93% 29.99 in 10.0 mi SSE 5.8 mph - N/A   Overcast
11:53 AM 55.9 °F 53.1 °F 90% 29.98 in 10.0 mi SE 4.6 mph - 0.01 in   Overcast
12:15 PM 57.2 °F 53.6 °F 88% 30.26 in 10.0 mi SSE 8.1 mph - N/A   Overcast
12:35 PM 57.2 °F 53.6 °F 88% 30.26 in 10.0 mi SE 6.9 mph - N/A   Overcast
12:50 PM 57.2 °F 55.4 °F 94% 30.26 in 10.0 mi SSE 9.2 mph - N/A   Overcast
12:53 PM 57.9 °F 55.0 °F 90% 29.96 in 10.0 mi SE 9.2 mph - N/A   Overcast
1:02 PM 57.2 °F 53.6 °F 88% 30.26 in 10.0 mi SE 8.1 mph - N/A   Overcast
1:09 PM 57.2 °F 53.6 °F 88% 30.25 in 10.0 mi SE 8.1 mph - N/A   Overcast
1:17 PM 57.2 °F 53.6 °F 88% 30.25 in 10.0 mi SE 6.9 mph - N/A   Overcast
1:44 PM 55.4 °F 55.4 °F 100% 30.25 in 3.0 mi SE 9.2 mph - 0.01 in Rain Light Rain
1:53 PM 55.9 °F 55.0 °F 97% 29.96 in 6.0 mi ESE 6.9 mph - 0.02 in Rain Light Rain
2:12 PM 57.2 °F 55.4 °F 94% 30.25 in 9.0 mi SE 4.6 mph - 0.00 in Rain Light Rain
2:34 PM 57.2 °F 55.4 °F 94% 30.24 in 10.0 mi SE 4.6 mph - 0.00 in   Overcast
2:53 PM 57.9 °F 55.9 °F 93% 29.94 in 10.0 mi SSE 4.6 mph - 0.00 in Rain Light Rain
3:53 PM 59.0 °F 53.1 °F 81% 29.91 in 10.0 mi SE 4.6 mph - 0.00 in   Overcast
4:22 PM 59.0 °F 53.6 °F 82% 30.21 in 10.0 mi SE 6.9 mph - N/A   Overcast
4:29 PM 59.0 °F 53.6 °F 82% 30.21 in 10.0 mi SE 6.9 mph - N/A   Overcast
4:53 PM 57.9 °F 55.0 °F 90% 29.91 in 10.0 mi ESE 5.8 mph - 0.00 in Rain Light Rain
5:02 PM 57.2 °F 55.4 °F 94% 30.20 in 10.0 mi SE 5.8 mph - 0.01 in Rain Light Rain
5:53 PM 57.0 °F 55.9 °F 96% 29.91 in 10.0 mi SE 6.9 mph - 0.01 in Rain Light Rain
6:19 PM 57.2 °F 55.4 °F 94% 30.20 in 10.0 mi South 4.6 mph - 0.00 in   Overcast
6:29 PM 57.2 °F 55.4 °F 94% 30.20 in 10.0 mi South 4.6 mph - 0.01 in Rain Light Rain
6:35 PM 57.2 °F 55.4 °F 94% 30.20 in 10.0 mi SSE 5.8 mph - 0.01 in Rain Light Rain
6:42 PM 57.2 °F 55.4 °F 94% 30.20 in 10.0 mi SSE 5.8 mph - 0.02 in Rain Light Rain
6:53 PM 55.9 °F 55.0 °F 97% 29.92 in 10.0 mi SSE 3.5 mph - 0.02 in Rain Light Rain
7:00 PM 55.4 °F 55.4 °F 100% 30.20 in 7.0 mi South 3.5 mph - 0.01 in Rain Light Rain
7:13 PM 55.4 °F 53.6 °F 94% 30.20 in 7.0 mi Calm Calm - 0.02 in Rain Light Rain
7:29 PM 55.4 °F 55.4 °F 100% 30.20 in 7.0 mi North 6.9 mph - 0.04 in Rain Light Rain
7:37 PM 55.4 °F 53.6 °F 94% 30.20 in 10.0 mi NNW 9.2 mph - 0.04 in Rain Light Rain
7:53 PM 54.0 °F 53.1 °F 97% 29.91 in 10.0 mi North 8.1 mph - 0.04 in Rain Light Rain
8:01 PM 53.6 °F 51.8 °F 94% 30.19 in 10.0 mi North 6.9 mph - 0.00 in Rain Light Rain
8:22 PM 53.6 °F 51.8 °F 94% 30.19 in 10.0 mi NNE 6.9 mph - 0.00 in   Overcast
8:43 PM 53.6 °F 53.6 °F 100% 30.19 in 10.0 mi NE 9.2 mph - 0.00 in   Overcast
8:53 PM 54.0 °F 53.1 °F 97% 29.90 in 10.0 mi NNE 5.8 mph - 0.00 in Rain Light Rain
9:34 PM 53.6 °F 53.6 °F 100% 30.20 in 10.0 mi Calm Calm - 0.00 in   Overcast
9:41 PM 53.6 °F 53.6 °F 100% 30.20 in 10.0 mi East 3.5 mph - 0.00 in   Overcast
9:53 PM 54.0 °F 53.1 °F 97% 29.92 in 10.0 mi East 3.5 mph - 0.00 in   Overcast
10:03 PM 53.6 °F 53.6 °F 100% 30.20 in 10.0 mi East 4.6 mph - 0.00 in Rain Light Rain
10:53 PM 54.0 °F 53.1 °F 97% 29.91 in 10.0 mi ESE 3.5 mph - 0.00 in   Overcast
11:53 PM 54.0 °F 53.1 °F 97% 29.92 in 10.0 mi Calm Calm - 0.01 in   Overcast